SWISSCUBE (35932 NORAD) Tracking and Keplerian Element Data

This shows tracking and keplerian element data for the satellite.

Feedback or suggestion? Click here.




ElementValue
Catalog35932
NameSWISSCUBE
Epoch Orbit63767
Epoch Day269.54286779
Epoch Year2021
RAAN112.7148
Inclination98.5957
Eccentricity0.0008303
Argument of Perigee131.4053
Mean Anonmoly228.7859
Mean Motion14.56582512
Decay Rate2.34E-06
L11 35932U 09051B 21269.54286779 .00000234 00000-0 63612-4 0 9996
L22 35932 98.5957 112.7148 0008303 131.4053 228.7859 14.56582512637671

Live tracking and technical data element details for SWISSCUBE (NORAD 35932). SWISSCUBE can be tracked NOW for your location showing map with azimuth and elevation plus other details from your city location.

Track the satellite on the map from your city or location and see movement details for azimuth, elevation, latitude, longitude, range, height, and movement on the map or in text.







IsCatalogInMostPopularTable: catalog: 35932, numindb: 25154
Update: records affected: 1



GetName: 35932 SWISSCUBE

Hit Count: updated at: Tue, 28 Sep 2021 16:50:46 GMT